Temperature
16 16 16 16 15 15 15 15 15 14 14 14 14 14 14 13 13 13 13 13 13 12 12 12 12 12 12 11 11 11 11 10 10 10 10 10 10 10 10 10 10 10 10
16 16 16 15 15 15 15 15 14 14 14 14 14 14 13 13 13 13 13 13 12 12 12 12 12 12 11 11 11 11 10 10 10 10 10 10 10 10 10 10 10 10 10
15 15 15 15 15 15 14 14 14 14 14 14 13 13 13 13 13 13 13 12 12 12 12 12 12 11 11 11 11 11 10 10 10 10 10 10 10 10 10 10 10 10 10
15 15 15 15 15 14 14 14 14 14 14 14 13 13 13 13 13 13 12 12 12 12 12 12 11 11 11 11 11 10 10 10 10 10 10 10 10 9 9 9 10 9 10
14 14 14 14 14 14 14 14 14 13 13 13 13 13 13 13 12 12 12 12 12 12 12 11 11 11 11 11 11 10 10 10 10 9 9 9 9 9 9 9 9 9 9
14 14 14 14 13 13 13 13 13 13 13 13 13 13 13 12 12 12 12 12 12 11 11 11 11 11 11 11 10 10 10 10 10 9 9 9 9 9 9 9 9 9 9
14 13 13 13 13 13 13 13 13 13 12 12 13 12 12 12 12 12 12 11 11 11 11 11 11 11 10 10 10 10 10 9 9 9 9 9 9 9 9 9 8 8 9
13 13 13 13 13 12 12 12 12 12 12 12 12 12 12 12 12 11 11 11 11 11 11 10 10 10 10 10 10 10 9 9 9 9 9 9 9 9 8 8 8 8 8
13 13 12 12 12 12 12 12 12 12 12 11 11 11 11 11 11 11 11 11 10 10 10 10 10 10 10 9 9 9 9 9 9 9 9 9 8 8 8 8 8 8 8
12 12 12 12 12 12 12 11 11 11 11 11 11 11 11 11 11 10 10 10 10 10 10 9 9 9 9 9 9 9 9 9 9 8 8 8 8 8 8 8 8 7 7
12 12 12 11 11 11 11 11 11 11 10 10 10 10 10 10 10 10 10 9 9 9 9 9 9 9 9 8 8 8 8 8 8 8 8 8 8 8 8 7 7 7 7
12 11 11 11 11 11 11 10 10 10 10 10 10 10 10 9 9 9 9 9 9 9 9 9 9 8 8 8 8 8 8 7 7 7 7 7 7 7 7 7 7 7 7
11 11 11 11 11 10 10 10 10 10 10 9 9 9 9 9 9 9 9 8 8 8 8 8 8 8 8 7 7 7 7 7 7 7 7 7 6 6 6 6 6 6 6
11 10 10 10 10 10 10 9 9 9 9 9 9 9 9 8 8 8 8 8 8 8 8 7 7 7 7 7 7 7 6 6 6 6 6 6 6 6 6 6 6 6 6
10 10 10 10 9 9 9 9 9 9 9 9 9 8 8 8 8 8 8 8 8 8 7 7 7 7 6 6 6 6 6 6 6 5 5 5 5 5 5 5 5 5 5
9 9 9 9 9 9 9 8 8 8 8 8 8 8 8 8 8 8 7 7 7 7 7 7 6 6 6 6 6 5 5 5 5 5 5 5 5 5 5 5 5 5 5
9 8 8 8 8 8 8 8 8 8 8 8 8 8 7 7 7 7 7 7 6 6 6 6 6 6 6 5 5 5 5 5 5 5 5 4 4 4 4 4 4 4 4
8 8 8 8 7 7 7 7 7 7 7 7 7 7 7 7 7 6 6 6 6 6 6 6 5 5 5 5 5 5 5 4 4 4 4 4 4 4 4 4 4 4 4
8 8 7 7 7 7 7 7 7 7 7 7 7 7 6 6 6 6 6 6 6 6 6 5 5 5 5 5 5 4 4 4 4 4 4 4 4 4 3 3 3 3 3
7 7 7 7 7 7 6 6 6 6 6 6 6 6 6 6 6 6 6 5 5 5 5 5 5 5 4 4 4 4 4 4 4 4 4 4 3 3 3 3 3 3 3
7 7 7 7 6 6 6 6 6 6 6 6 6 6 6 6 6 5 5 5 5 5 5 5 5 4 4 4 4 4 4 4 4 4 4 3 3 3 3 3 3 3 3
7 7 6 6 6 6 6 6 6 6 5 6 6 5 5 5 5 5 5 5 5 5 5 5 4 4 4 4 4 3 3 3 3 3 3 3 3 3 3 3 2 2 2
6 6 6 6 6 6 6 5 5 5 5 5 5 5 5 5 5 5 5 5 5 4 4 4 4 4 3 3 3 3 3 3 3 3 3 3 3 3 2 2 2 2 2
6 6 6 6 5 5 5 5 5 5 5 5 5 5 5 5 5 4 4 4 4 4 4 4 3 3 3 3 3 3 3 3 3 3 2 2 2 2 2 2 2 2 1
5 5 5 5 5 5 5 5 5 4 4 4 4 4 4 4 4 4 4 4 4 4 3 3 3 3 3 3 3 3 3 2 2 2 2 2 2 2 2 2 1 1 1
5 5 5 5 5 4 4 4 4 4 4 4 4 4 4 4 4 4 3 3 3 3 3 3 3 3 3 2 2 2 2 2 2 2 2 2 2 1 1 1 1 1 1
Wind_Speed
5 4 3 3 3 4 4 4 4 3 3 4 4 4 4 4 4 4 4 4 4 2 2 2 2 2 1 1 1 1 1 2 2 2 1 2 2 2 3 4 4 3 4
4 4 4 3 3 3 3 3 3 4 3 4 4 4 4 4 4 5 5 4 5 4 3 3 3 2 2 1 2 2 2 2 2 2 1 2 2 3 3 3 3 3 4
4 4 3 3 3 4 3 3 3 3 3 3 3 4 4 4 4 4 5 4 4 4 4 4 4 4 3 2 2 2 2 1 1 2 2 1 1 2 2 2 3 3 4
4 4 4 4 4 4 4 3 3 4 4 3 3 3 4 4 4 4 4 4 3 3 4 4 4 5 5 4 3 3 2 2 1 1 1 1 1 2 1 1 2 2 3
5 5 5 4 3 4 3 3 3 3 3 3 3 2 2 3 3 3 4 4 4 3 3 3 4 5 5 5 3 4 4 3 2 2 1 1 1 1 1 1 1 2 2
5 5 4 4 3 4 4 4 3 3 3 3 3 3 3 3 4 5 4 4 4 4 3 3 3 3 4 5 5 5 6 4 4 3 2 3 3 2 1 1 0 1 2
4 4 4 4 4 4 4 3 4 3 3 2 3 3 3 3 4 5 5 4 4 4 4 3 2 2 3 2 3 4 4 5 5 5 4 5 4 4 3 2 2 2 3
3 4 4 5 5 4 4 4 4 3 3 3 3 3 3 2 3 4 5 3 3 2 3 3 3 2 2 3 3 2 1 2 3 3 4 4 4 4 4 3 3 2 1
4 4 4 5 5 5 5 5 4 3 3 3 3 3 3 2 2 3 4 3 2 2 1 2 2 2 3 3 3 2 1 2 2 3 3 3 2 2 3 3 1 1 1
5 5 5 5 5 6 6 5 3 3 4 3 3 3 3 2 2 3 5 3 2 1 0 1 2 2 3 4 3 3 3 2 1 0 0 0 1 0 1 2 3 2 1
5 4 4 4 5 5 5 4 4 4 3 3 3 2 3 3 3 4 5 3 3 2 2 1 1 3 3 4 3 2 2 2 1 1 1 0 1 1 0 0 2 3 3
4 4 4 4 3 3 4 4 4 4 4 3 2 2 2 2 2 4 5 4 4 3 3 2 1 2 3 3 2 1 1 2 2 1 1 1 1 1 1 1 1 2 3
4 3 3 3 2 3 4 4 4 4 4 3 3 3 3 2 3 3 4 5 4 3 3 3 3 3 2 2 2 2 3 2 2 1 0 1 2 2 1 1 1 1 2
4 3 3 3 3 2 3 3 4 4 4 4 4 4 3 2 3 3 3 4 4 3 2 3 4 3 2 2 2 1 1 2 2 1 1 1 1 1 1 1 1 1 1
3 3 3 3 3 3 2 3 4 5 6 6 5 5 5 4 5 5 4 4 4 4 3 2 2 2 2 1 1 1 1 1 1 1 1 1 1 1 2 1 1 1 1
2 2 3 3 3 2 2 1 2 3 4 5 5 4 4 5 5 6 6 6 6 7 5 3 3 3 3 3 2 1 1 1 1 1 1 1 1 1 2 2 1 1 2
4 3 2 2 3 3 3 3 2 2 2 3 4 4 4 4 5 6 6 6 6 7 4 4 4 4 3 3 3 3 2 2 2 2 2 2 2 2 1 2 2 2 2
4 4 3 3 3 3 3 4 3 3 2 2 2 3 4 4 5 6 6 5 4 4 3 4 4 4 3 3 3 3 2 2 2 2 2 2 2 2 2 2 2 3 3
4 3 3 3 3 3 3 3 3 3 3 2 1 2 3 4 5 6 7 4 5 4 4 4 4 4 4 4 4 3 3 3 3 3 3 3 3 3 3 3 3 4 3
4 5 4 3 3 3 3 3 3 3 3 3 4 3 3 3 3 4 4 4 5 5 4 4 4 4 4 4 4 3 3 3 4 4 3 3 3 3 4 4 4 3 3
3 4 5 3 3 4 4 4 4 4 4 4 4 4 5 5 5 5 5 5 5 5 5 5 5 4 4 4 4 4 4 4 4 4 4 4 3 4 3 3 4 4 3
4 4 4 4 4 4 4 4 4 4 5 5 3 4 7 4 5 5 5 5 5 4 4 4 4 4 4 5 5 5 5 5 5 4 4 4 4 4 3 3 3 3 3
4 4 4 4 4 5 4 4 4 4 4 4 4 4 4 4 5 5 5 5 4 4 3 4 4 4 4 5 6 6 6 6 6 5 4 4 3 3 3 3 3 3 3
3 4 4 4 4 4 4 4 4 4 4 5 4 4 5 5 5 5 5 4 4 4 4 4 5 6 6 5 5 6 7 7 6 6 6 5 4 4 4 3 4 4 4
3 3 4 4 4 4 4 4 4 4 4 4 4 4 4 4 4 4 4 4 4 4 4 4 4 5 6 7 6 6 7 8 7 6 6 5 5 5 4 4 4 4 4
2 3 3 3 4 4 4 4 4 4 4 4 4 4 4 4 4 4 4 4 4 4 4 4 5 5 6 6 7 8 8 8 8 7 6 4 5 4 4 4 4 4 4
Wind_Direction
183 180 178 184 181 172 175 187 192 195 188 185 183 174 173 171 164 158 166 163 167 176 179 172 189 181 167 168 156 154 161 154 198 270 290 316 325 328 345 344 339 337 326
186 179 180 176 169 167 175 187 184 183 190 188 183 177 177 173 167 168 176 183 183 190 196 184 197 184 183 186 176 183 197 186 182 233 283 313 300 306 322 328 337 333 326
175 174 175 171 172 184 190 187 179 175 173 171 175 179 181 177 175 179 181 189 193 197 196 197 201 181 198 201 189 188 198 191 173 189 250 287 302 323 334 329 335 339 333
170 173 183 193 187 189 187 182 182 177 170 170 176 182 183 179 177 177 176 185 190 199 202 204 205 201 204 195 193 190 178 160 151 165 220 270 284 310 336 321 328 329 323
174 183 199 203 187 175 176 177 178 176 174 171 163 166 170 175 187 178 180 183 189 200 207 211 216 214 214 200 195 184 173 174 173 178 203 239 264 291 278 273 294 315 304
183 196 199 190 179 176 181 169 160 167 169 160 166 171 184 208 210 190 179 176 187 194 207 221 224 216 218 214 212 198 187 182 188 187 204 219 236 234 239 245 257 349 308
189 198 199 188 189 193 180 165 176 183 171 170 182 178 199 223 212 194 187 172 185 196 201 203 219 219 199 189 202 203 215 214 200 189 199 216 217 212 197 211 218 226 246
191 199 197 189 192 191 173 184 191 183 183 192 197 198 199 222 209 196 187 157 168 192 199 198 196 199 193 163 163 175 227 243 222 209 209 222 222 207 197 198 205 226 270
202 205 204 196 189 183 188 199 196 181 185 197 199 195 199 233 215 182 158 145 165 192 205 194 182 189 204 159 144 166 201 267 243 215 213 210 209 199 168 139 137 130 281
215 213 203 195 189 192 196 197 192 188 194 188 195 206 206 218 209 183 162 154 161 171 165 217 201 190 192 166 151 163 195 234 231 170 176 353 17 46 159 169 182 187 225
215 202 191 192 195 194 191 185 178 179 175 182 195 212 213 217 209 187 173 168 171 166 179 211 238 212 199 187 166 179 216 178 159 154 138 358 2 3 359 224 198 196 211
189 181 186 189 191 177 172 177 175 172 175 184 195 215 230 228 217 200 184 172 161 163 187 200 216 197 180 175 172 187 159 118 111 106 83 310 294 288 290 281 265 247 238
178 186 189 180 168 165 170 178 178 177 182 195 200 218 233 222 216 205 190 179 169 164 176 176 173 173 169 169 169 158 135 119 121 121 230 273 283 287 284 310 313 300 299
184 193 183 174 173 171 182 183 186 192 198 203 206 218 224 215 207 198 193 187 175 167 159 164 156 140 125 136 138 142 138 159 160 185 230 274 320 332 311 289 272 295 303
188 195 191 186 182 184 193 203 205 213 210 206 207 203 202 219 223 198 182 186 184 178 150 131 126 127 137 113 92 99 147 162 182 178 192 235 279 294 298 303 292 295 262
185 197 197 192 186 184 188 256 259 234 236 228 221 211 221 223 198 189 191 186 174 163 148 162 180 188 191 192 194 211 220 217 216 215 222 231 241 258 289 302 292 265 268
194 203 193 193 195 192 188 194 230 290 275 242 227 226 228 209 185 184 185 178 172 164 170 190 196 200 204 204 204 210 223 227 216 215 227 232 236 252 270 277 274 277 283
201 213 205 200 201 201 202 205 203 206 231 259 241 226 218 200 187 181 173 157 175 183 196 201 205 203 206 209 211 219 220 217 220 221 227 234 233 241 254 260 255 257 270
208 212 204 199 201 200 200 203 207 210 215 219 216 216 205 193 185 181 168 178 193 206 214 215 211 208 212 213 212 213 213 217 222 223 228 232 234 236 249 255 254 255 262
220 224 211 200 198 196 200 207 210 213 216 216 221 216 189 171 182 191 195 201 204 210 212 213 214 213 212 211 210 208 213 219 220 223 228 229 233 233 241 250 255 258 258
214 222 222 215 209 207 207 213 215 216 220 225 230 224 200 194 202 205 209 214 214 215 213 212 211 213 212 209 208 208 213 225 226 226 226 229 233 238 241 245 253 256 261
207 214 215 211 211 210 215 216 214 216 220 224 231 223 209 204 208 211 214 220 223 220 213 208 213 214 211 211 210 213 219 226 229 227 227 231 235 237 237 240 247 254 255
213 214 217 217 211 214 217 215 214 215 221 222 219 216 211 212 215 216 217 217 216 219 214 208 212 218 223 221 216 213 219 225 225 221 220 227 233 235 236 240 244 255 260
216 215 217 217 213 214 215 215 214 216 218 219 219 218 217 217 217 218 217 215 212 212 215 216 218 221 222 225 225 223 225 227 220 212 208 214 220 227 232 239 241 251 255
226 223 219 219 216 214 215 215 217 218 219 222 222 219 217 218 219 220 217 216 215 215 217 221 224 225 225 225 226 225 225 225 221 211 205 209 219 225 228 234 241 252 255
240 234 228 223 220 217 215 218 222 221 221 223 222 215 212 215 216 212 210 208 211 216 218 222 223 224 228 228 226 225 223 222 219 216 207 207 216 224 224 230 236 237 239
Height
1507 1509 1511 1512 1513 1515 1516 1518 1519 1520 1521 1522 1523 1524 1525 1526 1527 1527 1528 1528 1528 1528 1528 1528 1528 1528 1527 1527 1527 1527 1527 1527 1526 1525 1525 1525 1524 1523 1523 1522 1522 1521 1521
1505 1506 1507 1509 1510 1512 1513 1515 1516 1517 1518 1519 1521 1522 1523 1524 1524 1525 1525 1526 1526 1526 1526 1526 1526 1525 1525 1525 1525 1525 1525 1524 1524 1523 1523 1523 1522 1522 1521 1520 1520 1519 1518
1502 1503 1504 1505 1507 1509 1510 1512 1513 1514 1515 1517 1518 1519 1520 1521 1521 1522 1523 1523 1523 1523 1523 1523 1523 1523 1523 1523 1523 1522 1522 1522 1522 1521 1521 1520 1520 1520 1519 1518 1517 1517 1516
1499 1500 1501 1502 1504 1506 1507 1509 1511 1512 1513 1513 1514 1515 1517 1518 1518 1519 1519 1520 1520 1520 1520 1520 1521 1521 1520 1520 1520 1520 1520 1520 1520 1519 1519 1518 1518 1517 1517 1516 1515 1514 1514
1495 1497 1498 1499 1501 1503 1504 1506 1507 1508 1509 1510 1511 1512 1513 1514 1515 1516 1516 1516 1517 1517 1517 1517 1517 1518 1518 1518 1518 1518 1517 1517 1517 1517 1516 1516 1516 1515 1514 1513 1513 1512 1512
1492 1493 1495 1496 1498 1499 1501 1502 1503 1505 1506 1507 1508 1508 1509 1510 1511 1512 1513 1513 1513 1513 1514 1514 1514 1514 1514 1515 1515 1515 1515 1515 1514 1514 1514 1513 1513 1513 1512 1511 1511 1510 1509
1489 1490 1492 1493 1494 1496 1497 1498 1500 1501 1502 1503 1504 1505 1505 1506 1508 1509 1509 1509 1510 1510 1510 1510 1510 1511 1511 1511 1511 1511 1511 1511 1512 1512 1511 1511 1511 1510 1510 1510 1509 1508 1508
1486 1487 1488 1490 1491 1492 1493 1495 1496 1497 1498 1499 1500 1501 1501 1502 1503 1504 1505 1505 1506 1506 1506 1507 1507 1507 1508 1508 1507 1507 1507 1508 1508 1508 1508 1508 1508 1508 1508 1508 1507 1506 1505
1483 1484 1485 1486 1488 1489 1489 1491 1492 1493 1494 1496 1496 1497 1497 1498 1499 1500 1501 1501 1502 1502 1502 1503 1503 1503 1504 1504 1504 1504 1504 1504 1504 1505 1505 1505 1505 1505 1504 1504 1503 1503 1502
1480 1481 1482 1483 1484 1485 1485 1487 1488 1489 1490 1492 1492 1493 1494 1494 1495 1496 1497 1497 1497 1498 1498 1499 1499 1500 1500 1500 1500 1500 1500 1500 1501 1501 1501 1501 1501 1501 1501 1501 1500 1500 1499
1477 1478 1478 1479 1480 1481 1482 1483 1484 1485 1487 1488 1488 1489 1490 1491 1491 1492 1492 1493 1493 1494 1494 1494 1495 1496 1496 1497 1497 1497 1497 1497 1497 1497 1497 1498 1498 1498 1498 1497 1497 1497 1496
1473 1474 1475 1476 1477 1477 1478 1479 1480 1482 1483 1483 1484 1485 1486 1486 1487 1487 1488 1489 1489 1490 1490 1491 1491 1492 1493 1493 1493 1493 1494 1494 1494 1494 1494 1494 1494 1494 1494 1494 1494 1494 1493
1469 1470 1471 1472 1473 1474 1475 1475 1476 1477 1478 1479 1480 1480 1481 1481 1482 1483 1484 1484 1485 1486 1487 1487 1488 1489 1489 1489 1490 1490 1490 1490 1490 1490 1490 1490 1491 1491 1490 1490 1490 1490 1490
1465 1466 1467 1468 1469 1470 1471 1472 1472 1473 1474 1474 1475 1476 1476 1477 1478 1478 1479 1480 1481 1482 1483 1484 1484 1485 1486 1486 1486 1486 1486 1487 1487 1487 1487 1487 1487 1487 1487 1486 1486 1486 1485
1462 1462 1463 1464 1465 1466 1467 1468 1468 1469 1470 1470 1471 1472 1472 1472 1473 1475 1475 1476 1477 1478 1479 1479 1480 1481 1481 1481 1482 1482 1483 1483 1483 1483 1484 1484 1483 1483 1483 1483 1483 1482 1482
1458 1459 1460 1460 1461 1462 1463 1463 1464 1465 1466 1467 1467 1468 1468 1469 1470 1471 1472 1472 1473 1474 1475 1474 1475 1476 1476 1477 1478 1478 1479 1479 1480 1480 1480 1480 1480 1480 1480 1479 1479 1479 1477
1455 1455 1456 1457 1457 1458 1458 1459 1459 1461 1462 1462 1463 1463 1464 1465 1466 1466 1467 1468 1469 1470 1470 1470 1470 1471 1472 1473 1474 1474 1475 1475 1476 1476 1476 1476 1476 1476 1476 1476 1475 1475 1474
1452 1452 1452 1453 1454 1454 1455 1455 1455 1456 1456 1457 1458 1459 1460 1461 1462 1463 1464 1464 1464 1464 1465 1465 1466 1467 1468 1469 1470 1470 1471 1471 1472 1472 1472 1472 1472 1472 1472 1472 1471 1471 1470
1448 1448 1448 1449 1449 1450 1450 1451 1451 1452 1452 1452 1453 1455 1456 1457 1457 1458 1458 1459 1459 1459 1460 1461 1462 1462 1463 1464 1465 1466 1466 1467 1468 1468 1468 1468 1468 1468 1468 1467 1467 1467 1466
1443 1444 1444 1444 1445 1445 1446 1446 1447 1447 1447 1448 1448 1449 1451 1451 1452 1452 1453 1453 1454 1455 1456 1456 1457 1458 1459 1460 1460 1461 1462 1462 1463 1464 1464 1464 1464 1464 1464 1464 1463 1463 1462
1438 1439 1439 1439 1440 1441 1441 1442 1442 1443 1443 1444 1444 1445 1446 1446 1447 1447 1448 1449 1449 1450 1451 1452 1453 1453 1454 1455 1455 1456 1456 1457 1458 1458 1459 1459 1459 1459 1459 1459 1459 1459 1458
1433 1433 1434 1434 1435 1436 1436 1437 1438 1439 1439 1439 1440 1441 1442 1442 1442 1442 1443 1444 1445 1446 1447 1447 1448 1448 1449 1450 1450 1451 1451 1452 1453 1453 1454 1454 1455 1455 1455 1455 1454 1454 1454
1428 1428 1429 1429 1430 1431 1431 1432 1433 1434 1434 1435 1436 1436 1437 1437 1437 1438 1438 1439 1440 1441 1442 1442 1443 1443 1444 1445 1445 1446 1446 1447 1448 1449 1449 1449 1450 1450 1450 1450 1450 1449 1449
1424 1424 1424 1424 1425 1425 1426 1427 1427 1428 1429 1430 1431 1431 1432 1432 1433 1433 1434 1434 1435 1436 1436 1437 1438 1438 1439 1439 1440 1441 1441 1442 1443 1444 1444 1444 1444 1445 1445 1445 1445 1444 1444
1419 1419 1419 1419 1420 1420 1421 1421 1422 1423 1424 1425 1425 1426 1427 1427 1428 1428 1429 1430 1430 1431 1431 1432 1433 1433 1433 1434 1435 1436 1437 1437 1438 1438 1439 1439 1439 1440 1440 1440 1440 1439 1439
1416 1415 1415 1415 1415 1416 1416 1416 1417 1418 1418 1419 1420 1421 1421 1422 1423 1423 1424 1425 1425 1426 1426 1427 1427 1428 1429 1429 1430 1431 1431 1432 1433 1433 1434 1434 1434 1434 1435 1434 1434 1434 1434